This demonstration page uses our WeatherBlox Daily Observations layout. Learn more.

Left ArrowRight Arrow

44.31136, -96.79839

Hourly Observations for August 20, 2018

Temp ( °F °C ) Dew Point ( °F °C ) Humidity (%) Winds ( mph kmh ) Pressure ( in mb ) Visibility ( mi km ) Precip ( " mm )
12:13 am 00:13 Cloudy 64 18 63 17 94 94 NNE 6 9 N/A 10 16 0.00 0.00
12:44 am 00:44 Cloudy 64 18 63 17 94 94 N 5 7 29.94 1014 10 16 0.00 0.00
12:56 am 00:56 Cloudy 63 17.2 62 16.7 97 97 NNW 7 11 29.99 1016 10 16 0.00 0.00
1:12 am 01:12 Cloudy 63 17 63 17 100 100 NNW 7 11 29.94 1014 10 16 0.00 0.00
1:21 am 01:21 Cloudy 63 17 63 17 100 100 N 9 15 29.94 1014 10 16 0.00 0.00
1:56 am 01:56 Cloudy 63 17.2 62 16.7 97 97 N 13 20 29.98 1015 10 16 0.00 0.00
2:56 am 02:56 Cloudy 63 17.2 62 16.7 97 97 NNE 12 19 29.97 1015 7 11 0.00 0.00
3:56 am 03:56 Cloudy 63 17.2 61 16.1 93 93 NNE 8 13 N/A 7 11 0.00 0.00
4:56 am 04:56 Cloudy 62 16.7 61 16.1 96 96 NNE 9 15 29.99 1016 8 13 0.01 0.25
5:41 am 05:41 Cloudy 63 17 63 17 100 100 NNE 9 15 29.94 1014 7 11 0.00 0.00
5:56 am 05:56 Cloudy 63 17.2 62 16.7 97 97 NNE 9 15 30.00 1016 7 11 0.00 0.00
6:10 am 06:10 Cloudy 63 17 63 17 100 100 NNE 8 13 29.94 1014 8 13 0.00 0.00
6:56 am 06:56 Cloudy with Mist and Fog 63 17.2 62 16.7 97 97 N 15 24 30.00 1016 3 5 0.00 0.00
7:07 am 07:07 Cloudy with Mist and Fog 63 17 61 16 94 94 NNE 13 20 29.94 1014 3 4 0.00 0.00
7:21 am 07:21 Cloudy with Mist and Fog 63 17 61 16 94 94 N 13 20 29.94 1014 3 5 0.00 0.00
7:36 am 07:36 Cloudy with Mist and Fog 61 16 61 16 100 100 N 15 24 29.94 1014 2 3 0.00 0.00
7:56 am 07:56 Cloudy with Mist and Fog 60 15.6 59 15 96 96 N 16 26 30.03 1017 2 3 0.00 0.00
8:06 am 08:06 Cloudy with Mist and Fog 59 15 59 15 100 100 N 16 26 29.97 1015 2 3 0.00 0.00
8:34 am 08:34 Cloudy with Mist and Fog 59 15 59 15 100 100 N 12 19 29.97 1015 3 5 0.00 0.00
8:56 am 08:56 Cloudy with Mist and Fog 60 15.6 59 15 96 96 N 10 17 30.04 1017 4 6 0.00 0.00
9:49 am 09:49 Cloudy with Mist and Fog 61 16 57 14 88 88 N 14 22 29.97 1015 6 10 0.00 0.00
10:56 am 10:56 Cloudy with Mist and Fog 62 16.7 59 15 90 90 N 13 20 30.04 1017 6 10 0.00 0.00
11:23 am 11:23 Cloudy 64 18 61 16 88 88 N 13 20 30.00 1016 8 13 0.00 0.00
11:56 am 11:56 Cloudy 64 17.8 60 15.6 87 87 N 14 22 30.05 1018 8 13 0.00 0.00
12:56 pm 12:56 Cloudy 64 17.8 60 15.6 87 87 N 17 28 30.05 1018 8 13 0.00 0.00
1:45 pm 13:45 Cloudy 66 19 61 16 83 83 N 15 24 30.00 1016 10 16 0.00 0.00
2:56 pm 14:56 Mostly Cloudy 69 20.6 61 16.1 76 76 NNE 15 24 30.05 1018 10 16 0.00 0.00
3:56 pm 15:56 Cloudy 70 21.1 62 16.7 76 76 N 13 20 30.06 1018 9 14 0.00 0.00
4:06 pm 16:06 Cloudy 70 21 61 16 73 73 N 12 19 29.97 1015 9 14 0.00 0.00
4:56 pm 16:56 Cloudy 71 21.7 61 16.1 71 71 N 18 30 30.06 1018 10 16 0.00 0.00
5:06 pm 17:06 Cloudy 72 22 61 16 69 69 N 18 30 29.97 1015 10 16 0.00 0.00
5:15 pm 17:15 Cloudy 70 21 61 16 73 73 N 14 22 29.97 1015 10 16 0.00 0.00
5:56 pm 17:56 Mostly Cloudy 70 21.1 60 15.6 71 71 N 18 30 30.07 1018 10 16 0.00 0.00
6:56 pm 18:56 Mostly Cloudy 68 20 59 15 73 73 N 12 19 30.08 1019 10 16 0.00 0.00
7:56 pm 19:56 Sunny 66 18.9 57 13.9 73 73 N 8 13 30.09 1019 10 16 0.00 0.00
8:56 pm 20:56 Clear 62 16.7 57 13.9 84 84 NNW 9 15 30.13 1020 10 16 0.00 0.00
9:56 pm 21:56 Mostly Clear 61 16.1 56 13.3 84 84 N 7 11 30.14 1021 10 16 0.00 0.00
10:56 pm 22:56 Clear 59 15 56 13.3 90 90 NNW 7 11 30.14 1021 10 16 0.00 0.00
11:56 pm 23:56 Clear 58 14.4 55 12.8 90 90 N 6 9 30.13 1020 10 16 0.00 0.00

Powered by AerisWeather